Jackson, MI

9:26 PM EDT on October 19, 2019 (GMT -0400)
Jackson County-Reynolds

Weather History for KJXN - August, 2019

Change the Weather History Date:

Friday, August 9, 2019

  Actual Average Record
Temperature  
Mean Temperature 67 °F 70 °F  
Max Temperature 80 °F 81 °F 93 °F (1949)
Min Temperature 54 °F 60 °F 41 °F (1964)
Degree Days  
Heating Degree Days 0 1  
Month to date heating degree days 0 5  
Since 1 June heating degree days 58 71  
Since 1 July heating degree days 0 16  
Cooling Degree Days 2 6  
Month to date cooling degree days 45 54  
Year to date cooling degree days 450 419  
Since 1 June cooling degree days 440 382  
Growing Degree Days 18 (Base 50)    
Moisture  
Dew Point 55 °F    
Average Humidity 70    
Maximum Humidity 100    
Minimum Humidity 39    
Precipitation  
Precipitation 0.00 in 0.11 in 2.60 in (1973)
Month to date precipitation 0.21 1.04  
Year to date precipitation 20.40 18.49  
Sea Level Pressure  
Sea Level Pressure 29.92 in    
Wind  
Wind Speed 6 mph (WSW)    
Max Wind Speed 16 mph    
Max Gust Speed 23 mph    
Visibility 10 miles    
Events      
T = Trace of Precipitation, MM = Missing Value Source: NWS Daily Summary

Daily Weather History Graph

Daily Weather History Graph

Search for Another Location

Airport or City:

Astronomy

Aug. 09, 2019 Rise Set
Actual Time 6:38 AM EDT 8:47 PM EDT
Civil Twilight 6:07 AM EDT 9:18 PM EDT
Nautical Twilight 5:29 AM EDT 9:55 PM EDT
Astronomical Twilight 4:48 AM EDT 10:37 PM EDT
Moon 4:28 PM EDT (8/9) 1:34 AM EDT (8/9)
Length of Visible Light 15h 10m
Length of Day
14h 08m
Waxing Gibbous, 70% of the Moon is Illuminated
Aug 9
Waxing Gibbous
Aug 15
Full
Aug 23
Last Quarter
Aug 30
New
Sep 5
First Quarter

Hourly Weather History & Observations

Time (EDT) Temp. Heat Index Dew Point Humidity Pressure Visibility Wind Dir Wind Speed Gust Speed Precip Events Conditions
12:56 AM 57.9 °F - 55.9 °F 93% 29.88 in 10.0 mi WSW 3.5 mph - N/A   Clear
1:56 AM 59.0 °F - 55.0 °F 87% 29.88 in 10.0 mi SSW 3.5 mph - N/A   Clear
2:56 AM 57.0 °F - 55.0 °F 93% 29.88 in 10.0 mi Calm Calm - N/A   Clear
3:56 AM 55.0 °F - 54.0 °F 96% 29.88 in 10.0 mi SW 4.6 mph - N/A   Clear
4:56 AM 55.0 °F - 54.0 °F 96% 29.88 in 10.0 mi SW 4.6 mph - N/A   Clear
5:56 AM 55.0 °F - 55.0 °F 100% 29.89 in 10.0 mi Calm Calm - N/A   Clear
6:56 AM 55.9 °F - 55.0 °F 97% 29.91 in 9.0 mi Calm Calm - N/A   Clear
7:17 AM 55.9 °F - 55.9 °F 100% 29.92 in 10.0 mi Calm Calm - N/A   Partly Cloudy
7:56 AM 59.0 °F - 57.0 °F 93% 29.91 in 10.0 mi WSW 3.5 mph - N/A   Clear
8:56 AM 64.9 °F - 60.1 °F 84% 29.92 in 10.0 mi WSW 5.8 mph - N/A   Clear
9:56 AM 70.0 °F - 60.1 °F 71% 29.94 in 10.0 mi West 8.1 mph - N/A   Clear
10:56 AM 73.0 °F - 57.0 °F 57% 29.93 in 10.0 mi West 6.9 mph - N/A   Clear
11:56 AM 75.0 °F - 54.0 °F 48% 29.93 in 10.0 mi WSW 8.1 mph - N/A   Scattered Clouds
12:56 PM 75.9 °F - 54.0 °F 46% 29.94 in 10.0 mi WSW 12.7 mph 21.9 mph N/A   Partly Cloudy
1:56 PM 78.1 °F - 54.0 °F 43% 29.92 in 10.0 mi West 9.2 mph - N/A   Scattered Clouds
2:56 PM 75.9 °F - 55.0 °F 48% 29.91 in 10.0 mi NW 11.5 mph 23.0 mph N/A   Mostly Cloudy
3:56 PM 80.1 °F 79.9 °F 53.1 °F 39% 29.91 in 10.0 mi West 10.4 mph 17.3 mph N/A   Scattered Clouds
4:56 PM 78.1 °F - 53.1 °F 42% 29.91 in 10.0 mi WNW 9.2 mph - N/A   Scattered Clouds
5:56 PM 75.9 °F - 54.0 °F 46% 29.91 in 10.0 mi West 13.8 mph 20.7 mph N/A   Scattered Clouds
6:56 PM 75.9 °F - 53.1 °F 45% 29.92 in 10.0 mi West 8.1 mph - N/A   Scattered Clouds
7:56 PM 73.0 °F - 53.1 °F 49% 29.92 in 10.0 mi West 5.8 mph - N/A   Clear
8:56 PM 66.0 °F - 54.0 °F 65% 29.94 in 10.0 mi WSW 4.6 mph - N/A   Clear
9:56 PM 64.9 °F - 54.0 °F 68% 29.96 in 10.0 mi West 4.6 mph - N/A   Clear
10:56 PM 64.0 °F - 54.0 °F 70% 29.96 in 10.0 mi West 3.5 mph - N/A   Clear
11:56 PM 63.0 °F - 54.0 °F 72% 29.96 in 10.0 mi Calm Calm - N/A   Clear